Home > Weather > Minas > Past weeks

Flag for Uruguay Weather for the Past 2 Weeks in Minas, Uruguay

Now
82 °F

Sunny.


Feels Like: 82 °F
Forecast: 57 / 90 °F
Wind: 5 mph from Northeast

Location: Capitan Corbeta

Current Time: Feb 11, 2016 at 12:58:24 PM

Latest Report: Feb 11, 2016 at 12:00 PM


Visibility: 10 mi

Pressure: 29.98 "Hg

Humidity: 40%

Dew point: 55 °F

Location of MinasLocation

Historic Weather in Minas — Graph

°F

Minas Temperature Yesterday

Maximum temperature yesterday: 79 °F (at 12:00 PM)
Minimum temperature yesterday: 64 °F (at 11:00 PM)
Average temperature yesterday: 72 °F

High & Low Weather Summary for the Past Weeks

 TemperatureHumidityPressure
High88 °F (Feb 7, 3:00 PM)100% (Jan 28, 7:00 AM)30.12 "Hg (Jan 28, 7:00 AM)
Low57 °F (Feb 11, 6:00 AM)31% (Jan 27, 1:00 PM)29.74 "Hg (Feb 8, 7:00 PM)
Average73 °F69%29.97 "Hg
* Reported Jan 27 11:00 AM — Feb 11 11:00 AM, Minas, Weather by CustomWeather, © 2016

Note: Actual official high and low records may vary slightly from our data, if they occured in-between our weather recording intervals... More about our weather records

Advertising

Minas Weather History for the Previous 24 Hours

 ConditionsComfort  
Time TempWeatherWind HumidityBarometerVisibility
11:00 AM
Thu, Feb 11
79 °FSunny.8 mph51%29.98 "Hg10 mi
10:00 AM73 °FSunny.10 mph61%30.01 "Hg10 mi
9:00 AM68 °FSunny.7 mph69%30.01 "Hg10 mi
7:00 AM57 °FSunny.No wind88%30.01 "Hg10 mi
6:00 AM57 °FClear.3 mph82%30.01 "Hg6 mi
5:00 AM59 °FClear.3 mph82%29.98 "Hg10 mi
4:00 AM61 °FClear.6 mph83%30.01 "Hg10 mi
3:00 AM61 °FClear.6 mph77%30.01 "Hg10 mi
2:00 AM61 °FClear.7 mph77%30.04 "Hg10 mi
12:00 AM63 °FClear.7 mph73%30.01 "Hg10 mi
11:00 PM
Wed, Feb 10
64 °FClear.8 mph73%30.04 "Hg10 mi
10:00 PM66 °FClear.9 mph68%30.04 "Hg10 mi
9:00 PM68 °FClear.7 mph69%30.04 "Hg10 mi
8:00 PM68 °FClear.6 mph60%30.01 "Hg10 mi
7:00 PM73 °FSunny.8 mph50%30.01 "Hg10 mi
6:00 PM75 °FSunny.12 mph47%30.01 "Hg10 mi
5:00 PM75 °FSunny.14 mph47%30.01 "Hg10 mi
4:00 PM77 °FSunny.16 mph44%30.04 "Hg10 mi
3:00 PM77 °FSunny.15 mph47%30.04 "Hg10 mi
2:00 PM77 °FSunny.13 mph61%30.04 "Hg10 mi
1:00 PM79 °FSunny.12 mph58%30.01 "Hg10 mi
12:00 PM79 °FSunny.8 mph58%30.01 "Hg10 mi
Weather by CustomWeather, © 2016

See weather overviewHow to use our weather pages